STARLINK-11263, 60725

Orbit data source: Space-Track

STARLINK-11263, 60725 is a payload satellite owned by SpaceX/Seattle (US) in LEO that was launched on Wed, 28 Aug 2024 UTC via an FALCON 9 launch vehicle from the Air Force Eastern Test Range (AFETR). Payload-class satellites include a variety of spacecraft equipped with specific instruments for various scientific and technological missions. These include communications satellites like Starlink; space stations such as the ISS; scientific satellites like the Hubble; Earth observation satellites from companies like Planet Labs, Umbra, and HawkEye 360; GPS; miniature CubeSats for education and research; and military/defense satellites.

Loading next visibility...
Identifier
60725, 2024-152F
Orbit
LEO
Last TLE update
2 days ago
Origin
Manufacturer
SpaceX/Seattle
Mission
Operational Commercial Communications
Bus & Motor
STARLINK V2M, Unknown motor
Mass
730 kg wet, ~700 kg dry
Launch date (UTC)
2024-08-28 (8 months ago)
Launch vehicle
FALCON 9
Launch site
Air Force Eastern Test Range (AFETR)
Object type
Payload
Rocket body
Debris
Shape & HBR
Box + 2 Pan, 29 m
Radar Cross Section
36.964 m², Large (>1 m²)

Expand to show TLE details & history

TLE from 2 days ago
0 STARLINK-11263
1 60725U 24152F   25118.52031531  .00000234  00000-0  67897-5 0  9992
2 60725  53.1588 229.9610 0001132 109.7995 250.3145 15.69709704 39334
Epoch: 2025-04-28T12:29Z
Definitive object data (Epoch: 2025-04-28T12:29:15.242Z)
Latitude
-0.00004°
Longitude
-174.08569°
Altitude
360.9 km
Speed
7.694 km/s
True Right ascension
15h 19m 50s
True Declination
0° 00' 00"
Sunlit
Object was in full shadow at TLE epoch
Visualization TLE readout
Latitude
-18.97027°
Longitude
161.67756°
Altitude
365.536 km
Speed
7.69 km/s
Apparent Right ascension
10h 35m 21s
Apparent Declination
-46° 44' 45"
Sunlit
Object is in full shadow
Visualization observer readout
Local Sidereal Time
17:47:39
Azimuth
237.053° WSW
Elevation
-39.08°
Doppler factor
1
Orbital elements
Apogee altitude
360.751 km
Perigee altitude
359.226 km
Semi-major axis
6,738.125 km
Eccentricity
0.0001132
Inclination
53.1588°
RAAN
229.961°
Arg. of periapsis
109.7995°
True anomaly
250.30229°
Mean anomaly
250.3145°
Eccentric anomaly
250.30839°
Mean motion
3.92405 °/min
BSTAR
0.0000067897
Orbital period
91.74 mins
Loading maneuver chart data...
Loading SW <> Apogee altitude chart data...
Loading historical data...
Loading historical data...
Loading historical data...
Loading historical data...
Loading historical data...
Loading historical data...
Loading historical data...

STARLINK-11263 Visibility forecast

Observer location: undefined°, undefined°

Span
Click to sort rows by Start time (UTC) header in descending order
Start Az.
Max El. time (UTC)
Max El. Az.
Max El.
End time (UTC)
End Az.
4 mins2025-04-30 10:33:41.372Z280.089° WNW2025-04-30 10:35:41.372Z340.395° N23.25°2025-04-30 10:37:41.372Z26.212° NE
4 mins2025-05-01 09:27:41.372Z243.752° WSW2025-05-01 09:28:41.372Z287.381° WNW42.811°2025-05-01 09:31:41.372Z46.014° ENE
|